Location: Columbia
(38.9520°N, 92.3340°W)
Time: 17:57:58
(UTC-06:00)

FENGYUN 3A - Visible Passes

Search period start: 24 February 2017 00:00
Search period end: 06 March 2017 00:00
Orbit: 820 x 832 km, 98.4° (Epoch: 24 February)

Date Brightness Start Highest point End Pass type
(mag) Time Alt. Az. Time Alt. Az. Time Alt. Az.
24 Feb 4.5 18:23:09 10° SE 18:27:45 29° ENE 18:32:22 10° N visible
24 Feb 5.2 20:02:58 10° SSW 20:07:50 35° W 20:12:46 10° NNW visible
25 Feb 4.5 19:43:37 10° S 19:48:52 52° W 19:54:10 10° NNW visible
26 Feb 3.8 19:24:32 10° S 19:29:57 78° WSW 19:35:24 10° NNW visible
27 Feb 3.6 19:05:42 10° SSE 19:11:04 72° ENE 19:16:29 10° N visible
27 Feb 6.5 20:49:18 10° WSW 20:51:49 13° W 20:54:21 10° WNW visible
28 Feb 3.9 18:47:05 10° SE 18:52:15 48° ENE 18:57:27 10° N visible
28 Feb 6.1 20:28:47 10° SW 20:32:43 20° W 20:36:40 10° NW visible
01 Mar 4.3 18:28:42 10° SE 18:33:29 33° ENE 18:38:17 10° N visible
01 Mar 5.5 20:08:58 10° SSW 20:13:40 30° W 20:18:24 10° NW visible
02 Mar 4.7 19:49:31 10° S 19:54:41 45° W 19:59:52 10° NNW visible
03 Mar 4.0 19:30:22 10° S 19:35:44 68° WSW 19:41:10 10° NNW visible
04 Mar 3.6 19:11:26 10° SSE 19:16:51 82° ENE 19:22:18 10° N visible
04 Mar 6.6 20:56:04 10° WSW 20:57:41 11° W 20:59:19 10° WNW visible
05 Mar 3.8 18:52:44 10° SSE 18:58:00 56° ENE 19:03:18 10° N visible
05 Mar 6.3 20:35:01 10° SW 20:38:34 18° W 20:42:08 10° NW visible
